MFX205 UZTT-UAAA

Flight info

Callsign MFX205
Flight time N/A
Altitude 37000
Route BAMUT2C BAMUT DCT KOLAM N143 TAR Z817 AGLEK DCT TIPSA TIPSA1X
Aircraft A320/M-SDE1FGHIJ1RWXY/LB1

Departure

Time 2026-04-26 12:48
Airport Tashkent International Airport (UZTT)

Arrival

Time N/A
Airport Almaty International Airport (UAAA)
Time Latitude Longitude Altitude Speed Heading
2026-04-26 12:34 41.25978 69.26805 1379 ft 0 kts 336°
2026-04-26 12:45 41.25980 69.26803 1378 ft 2 kts 336°
2026-04-26 12:45 41.26007 69.26774 1377 ft 8 kts 297°
2026-04-26 12:45 41.25985 69.26688 1379 ft 13 kts 245°
2026-04-26 12:46 41.25946 69.26569 1378 ft 12 kts 247°
2026-04-26 12:46 41.25890 69.26459 1381 ft 17 kts 220°
2026-04-26 12:46 41.25785 69.26343 1382 ft 17 kts 220°
2026-04-26 12:46 41.25716 69.26191 1380 ft 22 kts 245°
2026-04-26 12:47 41.25635 69.26067 1382 ft 14 kts 167°
2026-04-26 12:47 41.25624 69.26115 1379 ft 7 kts 78°
2026-04-26 12:47 41.25645 69.26297 1382 ft 51 kts 81°
2026-04-26 12:47 41.25735 69.27092 1376 ft 120 kts 83°
2026-04-26 12:48 41.25883 69.28419 1479 ft 160 kts 79°
2026-04-26 12:48 41.26042 69.29894 2184 ft 162 kts 78°
2026-04-26 12:48 41.26205 69.31382 2828 ft 167 kts 79°
2026-04-26 12:48 41.26209 69.33031 3161 ft 195 kts 105°
2026-04-26 12:49 41.25359 69.34510 3477 ft 221 kts 150°
2026-04-26 12:49 41.23805 69.34916 3822 ft 242 kts 193°
2026-04-26 12:49 41.22179 69.34092 4269 ft 262 kts 212°
2026-04-26 12:49 41.20608 69.32738 4994 ft 274 kts 218°
2026-04-26 12:50 41.19062 69.31240 5974 ft 275 kts 219°
2026-04-26 12:50 41.17521 69.29727 6986 ft 276 kts 221°
2026-04-26 12:50 41.16239 69.27850 7927 ft 276 kts 237°
2026-04-26 12:50 41.15376 69.25587 8873 ft 277 kts 251°
2026-04-26 12:51 41.14961 69.23071 9790 ft 281 kts 261°
2026-04-26 12:51 41.14669 69.20472 10486 ft 293 kts 261°
2026-04-26 12:51 41.14405 69.17686 10786 ft 317 kts 268°
2026-04-26 12:51 41.14762 69.14718 11212 ft 335 kts 289°
2026-04-26 12:52 41.15956 69.12035 11942 ft 344 kts 310°
2026-04-26 12:52 41.17853 69.10063 12744 ft 353 kts 331°
2026-04-26 12:52 41.20228 69.09143 13556 ft 361 kts 349°
2026-04-26 12:52 41.22728 69.08717 14318 ft 364 kts 350°
2026-04-26 12:53 41.25252 69.08307 15010 ft 367 kts 350°
2026-04-26 12:53 41.27797 69.07873 15685 ft 371 kts 350°
2026-04-26 12:53 41.30380 69.07473 16343 ft 376 kts 355°
2026-04-26 12:53 41.32983 69.07611 16974 ft 383 kts
2026-04-26 12:54 41.35595 69.08442 17626 ft 390 kts 18°
2026-04-26 12:54 41.38087 69.09918 18284 ft 395 kts 25°
2026-04-26 12:54 41.40562 69.11547 18865 ft 399 kts 25°
2026-04-26 12:54 41.43061 69.13188 19426 ft 403 kts 25°
2026-04-26 12:55 41.45590 69.14842 19992 ft 407 kts 25°
2026-04-26 12:55 41.48148 69.16515 20546 ft 411 kts 25°
2026-04-26 12:55 41.50731 69.18208 21103 ft 416 kts 25°
2026-04-26 12:55 41.53340 69.19924 21603 ft 421 kts 25°
2026-04-26 12:56 41.55980 69.21663 22158 ft 425 kts 25°
2026-04-26 12:56 41.58643 69.23420 22683 ft 428 kts 25°
2026-04-26 12:56 41.61328 69.25191 23195 ft 432 kts 25°
2026-04-26 12:56 41.64044 69.26981 23685 ft 436 kts 25°
2026-04-26 12:57 41.66778 69.28782 24093 ft 440 kts 25°
2026-04-26 12:57 41.69536 69.30602 24508 ft 443 kts 25°
2026-04-26 12:57 41.72307 69.32432 24913 ft 446 kts 25°
2026-04-26 12:58 41.77873 69.36120 25636 ft 453 kts 25°
2026-04-26 12:58 41.80703 69.38001 26015 ft 456 kts 24°
2026-04-26 12:58 41.83541 69.39930 26405 ft 459 kts 28°
2026-04-26 12:58 41.86212 69.42302 26779 ft 463 kts 37°
2026-04-26 12:59 41.88616 69.45209 27142 ft 467 kts 44°
2026-04-26 12:59 41.90939 69.48284 27508 ft 470 kts 43°
2026-04-26 12:59 41.93278 69.51360 27863 ft 472 kts 43°
2026-04-26 12:59 41.95635 69.54451 28230 ft 474 kts 43°
2026-04-26 13:00 41.98000 69.57557 28599 ft 476 kts 43°
2026-04-26 13:00 42.00373 69.60682 28894 ft 480 kts 43°
2026-04-26 13:00 42.02767 69.63833 29203 ft 482 kts 43°
2026-04-26 13:00 42.05171 69.66999 29514 ft 485 kts 43°
2026-04-26 13:01 42.07587 69.70186 29806 ft 487 kts 43°
2026-04-26 13:01 42.10010 69.73392 30095 ft 489 kts 43°
2026-04-26 13:01 42.12436 69.76609 30339 ft 491 kts 43°
2026-04-26 13:01 42.14875 69.79854 30568 ft 493 kts 43°
2026-04-26 13:02 42.17309 69.83101 30838 ft 493 kts 43°
2026-04-26 13:02 42.19746 69.86352 31138 ft 492 kts 43°
2026-04-26 13:02 42.22185 69.89598 31454 ft 492 kts 42°
2026-04-26 13:02 42.24619 69.92837 31774 ft 491 kts 43°
2026-04-26 13:03 42.27051 69.96073 32086 ft 491 kts 43°
2026-04-26 13:03 42.29481 69.99309 32398 ft 490 kts 42°
2026-04-26 13:03 42.31870 70.02500 32722 ft 489 kts 42°
2026-04-26 13:03 42.34286 70.05736 33034 ft 489 kts 42°
2026-04-26 13:04 42.36698 70.08973 33354 ft 488 kts 42°
2026-04-26 13:04 42.39107 70.12211 33665 ft 488 kts 42°
2026-04-26 13:04 42.41514 70.15448 33994 ft 487 kts 42°
2026-04-26 13:04 42.43914 70.18677 34295 ft 486 kts 42°
2026-04-26 13:05 42.46316 70.21916 34589 ft 486 kts 42°
2026-04-26 13:05 42.48709 70.25150 34858 ft 486 kts 42°
2026-04-26 13:05 42.51102 70.28384 35093 ft 486 kts 42°
2026-04-26 13:05 42.53499 70.31626 35325 ft 487 kts 42°
2026-04-26 13:06 42.55895 70.34872 35574 ft 487 kts 42°
2026-04-26 13:06 42.58290 70.38126 35803 ft 487 kts 43°
2026-04-26 13:06 42.60486 70.41642 36032 ft 490 kts 53°
2026-04-26 13:06 42.62294 70.45575 36269 ft 491 kts 62°
2026-04-26 13:07 42.63669 70.49820 36486 ft 491 kts 70°
2026-04-26 13:07 42.64850 70.54168 36678 ft 492 kts 69°
2026-04-26 13:07 42.66017 70.58470 36912 ft 491 kts 70°
2026-04-26 13:07 42.67202 70.62815 37099 ft 491 kts 69°
2026-04-26 13:08 42.69754 70.71425 37149 ft 490 kts 66°
2026-04-26 13:08 42.72446 70.79951 37143 ft 490 kts 66°
2026-04-26 13:09 42.75110 70.88485 37128 ft 490 kts 67°
2026-04-26 13:09 42.77702 70.97036 37127 ft 488 kts 68°
2026-04-26 13:10 42.79836 71.04136 37130 ft 487 kts 67°
2026-04-26 13:10 42.82409 71.12680 37128 ft 487 kts 67°
2026-04-26 13:11 42.84982 71.21228 37121 ft 487 kts 67°
2026-04-26 13:11 42.87350 71.29893 37159 ft 488 kts 77°
2026-04-26 13:12 42.88853 71.38918 37139 ft 489 kts 78°
2026-04-26 13:12 42.90343 71.47965 37118 ft 489 kts 78°
2026-04-26 13:13 42.91833 71.57019 37128 ft 489 kts 78°
2026-04-26 13:13 42.93323 71.66077 37122 ft 489 kts 78°
2026-04-26 13:14 42.94803 71.75145 37132 ft 490 kts 78°
2026-04-26 13:14 42.96282 71.84224 37139 ft 490 kts 78°
2026-04-26 13:15 42.97987 71.93239 37142 ft 490 kts 75°
2026-04-26 13:15 42.99868 72.02188 37149 ft 490 kts 75°
2026-04-26 13:16 43.01722 72.11152 37149 ft 489 kts 76°
2026-04-26 13:16 43.03489 72.20065 37149 ft 489 kts 76°
2026-04-26 13:17 43.06112 72.33548 37144 ft 488 kts 76°
2026-04-26 13:18 43.08745 72.47009 37134 ft 488 kts 76°
2026-04-26 13:19 43.11360 72.60455 37123 ft 488 kts 76°
2026-04-26 13:19 43.13090 72.69425 37109 ft 488 kts 76°
2026-04-26 13:20 43.14815 72.78407 37112 ft 488 kts 76°
2026-04-26 13:20 43.16530 72.87397 37093 ft 488 kts 76°
2026-04-26 13:21 43.18232 72.96347 37079 ft 488 kts 77°
2026-04-26 13:21 43.19936 73.05332 37083 ft 487 kts 77°
2026-04-26 13:22 43.21629 73.14323 37083 ft 486 kts 77°
2026-04-26 13:22 43.23300 73.23277 37088 ft 483 kts 77°
2026-04-26 13:23 43.24958 73.32179 37083 ft 480 kts 77°
2026-04-26 13:23 43.26601 73.41038 37078 ft 478 kts 77°
2026-04-26 13:24 43.28222 73.49879 37074 ft 477 kts 77°
2026-04-26 13:24 43.29833 73.58720 37073 ft 477 kts 77°
2026-04-26 13:25 43.31447 73.67540 37053 ft 476 kts 77°
2026-04-26 13:25 43.33041 73.76309 37060 ft 476 kts 77°
2026-04-26 13:26 43.34631 73.85152 37060 ft 476 kts 77°
2026-04-26 13:26 43.36218 73.93974 37059 ft 476 kts 77°
2026-04-26 13:27 43.37808 74.02807 37054 ft 475 kts 77°
2026-04-26 13:27 43.39389 74.11623 37061 ft 475 kts 77°
2026-04-26 13:28 43.40946 74.20446 37063 ft 475 kts 78°
2026-04-26 13:28 43.42494 74.29282 37067 ft 474 kts 78°
2026-04-26 13:29 43.44044 74.38101 37076 ft 474 kts 77°
2026-04-26 13:29 43.45588 74.46856 37078 ft 474 kts 77°
2026-04-26 13:30 43.47132 74.55670 37080 ft 473 kts 77°
2026-04-26 13:30 43.47906 74.60114 36907 ft 482 kts 78°
2026-04-26 13:30 43.48687 74.64620 36483 ft 486 kts 78°
2026-04-26 13:30 43.49469 74.69158 35807 ft 485 kts 78°
2026-04-26 13:31 43.50243 74.73660 35229 ft 481 kts 78°
2026-04-26 13:31 43.51011 74.78138 34615 ft 478 kts 78°
2026-04-26 13:31 43.51775 74.82591 34022 ft 476 kts 78°
2026-04-26 13:31 43.52531 74.87008 33427 ft 472 kts 78°
2026-04-26 13:32 43.53281 74.91395 32868 ft 467 kts 77°
2026-04-26 13:32 43.54019 74.95732 32301 ft 463 kts 77°
2026-04-26 13:32 43.54750 75.00042 31744 ft 460 kts 77°
2026-04-26 13:32 43.55469 75.04298 31205 ft 456 kts 77°
2026-04-26 13:33 43.55945 75.07124 30836 ft 454 kts 78°